Regional Weather Roundup
Issued by NWS Bismarck, ND

Home | Current Version | Previous Version | Text Only | Print | Product List | Glossary On
Versions: 1 2 3 4 5 6 7 8 9 10 11 12 13 14 15 16 17 18 19 20 21 22 23 24 25 26 27 28 29 30 31 32 33 34 35 36 37 38 39 40 41 42 43 44 45 46 47 48 49 50
338
ASUS43 KBIS 280610
RWRBIS

NWR BROADCAST TEXT
NATIONAL WEATHER SERVICE BISMARCK ND
100 AM CDT TUE MAR 28 2017

NOTE: "FAIR" INDICATES FEW OR NO CLOUDS BELOW 12,000 FEET WITH NO
SIGNIFICANT WEATHER AND/OR OBSTRUCTIONS TO VISIBILITY.


CITY           SKY/WX    TMP DP  RH WIND       PRES   REMARKS
WILLISTON      CLOUDY    40  37  89 E9        30.01S
MINOT          FOG       36  35  96 NE7       30.06R VSB 1/4
MINOT AFB      FOG       36  36 100 NE7       30.06R VSB 1/2
BISMARCK       FAIR      40  35  83 E3        30.02R
DICKINSON      FAIR      38  30  73 SE7       29.96R
GARRISON         N/A     36  36 100 E12       30.02R
HETTINGER ARPT FAIR      39  31  72 SE5       29.99S
JAMESTOWN      FOG       34  34 100 E6        30.05R VSB 1/4
HAZEN          FOG       37  37 100 E6        30.04R VSB<1/4
LINTON           N/A     36  36 100 E9        30.04R
MANDAN         FAIR      43  34  70 SE6       30.02R
STANLEY        CLOUDY    34  34 100 NE7G14    30.07S FOG
TIOGA          CLOUDY    34  34 100 NE10      30.03F FOG
WATFORD CITY   MOCLDY    37  36  93 E9        30.00S
$$

CITY           SKY/WX    TMP DP  RH WIND       PRES   REMARKS
GRAND FORKS    CLOUDY    35  35 100 N7        30.09S FOG
GRAND FORKS AF PTCLDY    35  35 100 NW7       30.10R
DEVILS LAKE    FAIR      34  33  96 E8        30.08S FOG
FARGO          FOG       37  37 100 NE9       30.06S VSB 1/4
CAVALIER       CLOUDY    34  30  86 N9        30.12R
GRAFTON        CLOUDY    34  34 100 N10       30.12S
GWINNER        FOG       36  36 100 MISG      30.05S VSB 0
LANGDON        MOCLDY    34  32  93 NE14      30.09S
ROLLA          CLOUDY    32  32 100 NE9       30.10R
$$

CITY           SKY/WX    TMP DP  RH WIND       PRES   REMARKS
ABERDEEN       FAIR      37  32  82 E5        30.04R
MOBRIDGE       FAIR      39  31  72 E3        29.99R
BUFFALO          N/A     43  35  73 SE3       29.90R
RAPID CITY     FAIR      39  32  76 N5        29.94S
GLASGOW        FAIR      38  33  82 E12       29.96R
SIDNEY         FAIR      40  37  89 NE9       29.98S
WOLF POINT     FAIR      40  37  89 E10       29.97R
GLENDIVE       FAIR      44  37  76 NE13      29.95R
MILES CITY     FAIR      45  36  70 N10       29.92S
BAKER          MOCLDY    43  35  73 SE10      29.95R
$$

CITY           SKY/WX    TMP DP  RH WIND       PRES   REMARKS
BILLINGS       LGT RAIN  46  40  79 SW5       29.99R
GREAT FALLS    CLOUDY    40  34  79 SW13      30.02R
REGINA         CLOUDY    36  36 100 SE10      30.07S FOG
ESTEVAN        LGT RAIN  34  34 100 E15       30.07R
$$





USA.gov is the U.S. government's official web portal to all federal, state and local government web resources and services.